This is the latest recevied weather packets stored in our database for station/object F1ZVN-13. If no packets are shown the sender has not sent any weather packets the latest 1 day(s).
| Time | Temp. | Humidity | Pressure | Rain* | Wind** | Luminosity | Snow |
|---|---|---|---|---|---|---|---|
| 1778093592 | 1.11° C | 98% | 1002.4 hPa | 0 mm | 0 m/s | - | - |
| 1778093472 | 1.11° C | 98% | 1002.4 hPa | 0 mm | 0 m/s | - | - |
| 1778093352 | 1.11° C | 98% | 1002.4 hPa | 0 mm | 0 m/s | - | - |
| 1778092866 | 1.11° C | 99% | 1002.4 hPa | 0 mm | 0 m/s | - | - |
| 1778092657 | 1.11° C | 99% | 1002.4 hPa | 0 mm | 0 m/s | - | - |
| 1778092622 | 1.11° C | 99% | 1002.4 hPa | 0 mm | 0 m/s | - | - |
| 1778091897 | 1.67° C | 97% | 1002.4 hPa | 0 mm | 0 m/s | - | - |
| 1778091532 | 1.67° C | 95% | 1002.4 hPa | 0 mm | 0 m/s | - | - |
| 1778090562 | 1.67° C | 96% | 1002 hPa | 0 mm | 0 m/s | - | - |
| 1778090320 | 1.67° C | 95% | 1002 hPa | 0 mm | 0 m/s | - | - |
| 1778089836 | 1.67° C | 96% | 1002 hPa | 0 mm | 0 m/s | - | - |
| 1778088984 | 1.67° C | 96% | 1001.8 hPa | 0 mm | 0 m/s | - | - |
| 1778088622 | 2.22° C | 96% | 1001.8 hPa | 0 mm | 0 m/s | - | - |
| 1778088499 | 2.22° C | 95% | 1001.8 hPa | 0 mm | 0 m/s | - | - |
| 1778088380 | 2.22° C | 95% | 1001.7 hPa | 0 mm | 0 m/s | - | - |
| 1778088138 | 2.22° C | 95% | 1001.7 hPa | 0 mm | 0 m/s | - | - |
| 1778088015 | 2.22° C | 96% | 1001.8 hPa | 0 mm | 0 m/s | - | - |
| 1778087221 | 2.78° C | 95% | 1001.8 hPa | 0 mm | 0 m/s | - | - |
| 1778087044 | 2.78° C | 96% | 1001.7 hPa | 0 mm | 0 m/s | - | - |
| 1778086440 | 2.22° C | 96% | 1001.7 hPa | 0 mm | 0 m/s | - | - |
| 1778085589 | 3.33° C | 96% | 1001.5 hPa | 0 mm | 0 m/s | - | - |
| 1778084134 | 2.78° C | 90% | 1001.7 hPa | 0 mm | 0 m/s | - | - |
| 1778084014 | 2.78° C | 91% | 1001.7 hPa | 0 mm | 0 m/s | - | - |
| 1778083649 | 2.78° C | 94% | 1001.7 hPa | 0 mm | 0 m/s | - | - |
| 1778082679 | 3.33° C | 85% | 1001.7 hPa | 0 mm | 0 m/s | - | - |
* Rain latest hour (hover to see other rain measurements)
** Current wind speed in m/s (hover to see current wind gust speed)